スコッティ彗星

430P/Scotti (2021)

English version
Home page
Updated on April 10, 2022

---------------------------------------------------------------------

・ プロフィール

符号 430P/2021 Q2
検出日 2021年8月20日
検出光度 18.5等
検出者 B. T. Bolin (Zwicky Transient Facility, Palomar)

・ 写真集

・ 軌道要素

Epoch 2022 Jan. 21.0 TT = JDT 2459600.5
T 2021 Dec. 2.22203 TT                                  Rudenko
q   1.5546086            (2000.0)            P               Q
n   0.17996644     Peri.   94.50084     -0.85624314     -0.51263611
a   3.1070031      Node    54.67261     +0.43760376     -0.78530012
e   0.4996437      Incl.    4.47484     +0.27450069     -0.34714255
P   5.48
From 325 observations 2011 Jan. 11-2022 Jan. 8, mean residual 0".9.

・ 星図

・ 光度変化

        m1 = 10.0 + 5 logΔ + 30 log r(t + 50)

        ※ 灰色の曲線は、m1 = 13.5 + 5 logΔ + 10.0 log r の光度曲線です。

---------------------------------------------------------------------

軌道要素はM.P.E.C. 2022-C56に掲載されたものです。
星図はステラナビゲータ Ver.10 (アストロアーツ) で作成したものです。
光度グラフはComet for Windowsで作成したものです。

---------------------------------------------------------------------

Copyright(C) Seiichi Yoshida (comet@aerith.net). All rights reserved.